This is the latest recevied weather packets stored in our database for station/object W3JGB. If no packets are shown the sender has not sent any weather packets the latest 10 day(s).
| Time | Temp. | Humidity | Pressure | Rain* | Wind** | Luminosity | Snow |
|---|---|---|---|---|---|---|---|
| 1777749263 | 10.56° C | 53% | 1013 hPa | 0 mm | - | 424 W/m² | - |
| 1777748961 | 10.56° C | 53% | 1013.1 hPa | 0 mm | - | 345 W/m² | - |
| 1777748658 | 10.56° C | 52% | 1013.3 hPa | 0 mm | - | 211 W/m² | - |
| 1777736299 | 11.11° C | 52% | 1014 hPa | 0 mm | - | 187 W/m² | - |
| 1777735995 | 11.11° C | 52% | 1014 hPa | 0 mm | - | 187 W/m² | - |
| 1777735693 | 10.56° C | 56% | 1013.8 hPa | 0 mm | - | 557 W/m² | - |
| 1777735390 | 10.56° C | 56% | 1014.1 hPa | 0 mm | - | 249 W/m² | - |
| 1777735088 | 10° C | 58% | 1014 hPa | 0 mm | - | 448 W/m² | - |
| 1777734784 | 10° C | 52% | 1014.1 hPa | 0 mm | - | 437 W/m² | - |
| 1777734483 | 10° C | 58% | 1013.9 hPa | 0 mm | - | 200 W/m² | - |
| 1777734179 | 10° C | 53% | 1014 hPa | 0 mm | - | 599 W/m² | - |
| 1777733875 | 10° C | 52% | 1013.9 hPa | 0 mm | - | 558 W/m² | - |
| 1777733572 | 10° C | 59% | 1013.9 hPa | 0 mm | - | 370 W/m² | - |
| 1777733268 | 10° C | 59% | 1014.2 hPa | 0 mm | - | 281 W/m² | - |
| 1777732965 | 9.44° C | 55% | 1013.8 hPa | 0 mm | - | 515 W/m² | - |
| 1777732660 | 9.44° C | 56% | 1013.8 hPa | 0 mm | - | 330 W/m² | - |
| 1777732358 | 9.44° C | 60% | 1013.8 hPa | 0 mm | - | 415 W/m² | - |
| 1777732056 | 9.44° C | 58% | 1013.7 hPa | 0 mm | - | 422 W/m² | - |
| 1777731752 | 10° C | 58% | 1013.8 hPa | 0 mm | - | 372 W/m² | - |
| 1777731450 | 9.44° C | 59% | 1013.9 hPa | 0 mm | - | 373 W/m² | - |
| 1777731148 | 8.89° C | 60% | 1014 hPa | 0 mm | - | 252 W/m² | - |
| 1777730846 | 9.44° C | 57% | 1013.9 hPa | 0 mm | - | 240 W/m² | - |
| 1777730543 | 8.89° C | 61% | 1013.9 hPa | 0 mm | - | 356 W/m² | - |
| 1777730238 | 8.89° C | 60% | 1013.9 hPa | 0 mm | - | 222 W/m² | - |
| 1777729936 | 8.33° C | 63% | 1014 hPa | 0 mm | - | 264 W/m² | - |
* Rain latest hour (hover to see other rain measurements)
** Current wind speed in m/s (hover to see current wind gust speed)